GEFSNE_500_meanwind_180.txt.gz
Wind_Speed
18 19 20 21 20 20 21 22 22 22 22 23 23 24 25 24 24 24 24 24 24 25 26 26 27 27 27 28 29 29 30 31 31 31 32 32 32 33
19 20 21 22 22 21 22 23 23 23 23 24 25 25 25 24 26 26 26 26 26 27 27 28 28 29 29 30 31 31 31 31 32 33 34 35 35 35
17 18 18 19 20 22 23 23 23 23 24 24 24 24 25 25 26 26 27 27 28 28 28 29 29 30 31 32 32 32 32 34 35 35 37 37 37 37
16 17 18 19 20 21 21 22 23 23 23 23 24 25 26 26 26 27 27 28 29 29 29 30 30 30 31 32 33 33 34 35 36 37 37 37 37 37
16 17 17 18 19 20 21 21 22 23 23 24 24 25 26 27 28 27 27 27 29 29 29 30 31 32 32 33 33 34 35 36 37 38 38 37 37 37
17 17 17 18 19 20 20 20 21 22 23 23 24 25 26 27 28 28 28 29 29 30 30 31 31 32 33 34 34 35 36 37 38 39 39 38 39 39
16 17 17 17 18 19 19 20 21 22 22 23 25 26 27 27 28 29 29 29 30 31 32 32 33 34 35 35 35 36 36 37 38 39 40 40 40 40
17 17 18 17 18 19 19 20 21 22 23 25 26 26 26 28 29 30 30 30 31 32 33 33 34 35 37 37 37 37 37 37 37 38 39 40 40 40
17 17 18 19 19 20 21 22 22 23 24 25 25 26 27 29 30 30 31 31 32 33 33 34 34 35 35 36 36 36 37 36 37 37 38 38 39 39
18 18 18 19 19 21 22 22 23 24 25 26 27 27 28 28 29 30 31 32 32 33 34 34 34 35 36 36 36 36 35 36 36 36 35 36 35 36
19 19 20 20 21 22 22 23 24 24 26 27 28 28 29 29 29 30 31 32 33 33 34 34 34 34 35 35 35 35 35 36 35 35 35 34 35 36
20 21 22 22 23 23 24 25 25 26 27 27 28 29 30 30 31 31 32 33 33 33 33 34 34 34 34 34 35 35 35 35 35 35 35 36 36 37
21 22 22 23 24 25 25 26 27 27 27 28 29 29 30 30 31 32 32 33 33 33 34 33 33 33 34 34 35 35 36 36 36 36 37 37 38 38
22 23 24 25 26 26 27 27 28 28 28 29 30 30 31 31 32 32 33 33 33 33 33 33 34 34 34 35 35 36 37 37 37 37 38 38 38 38
24 25 26 27 27 28 28 28 29 29 30 30 31 32 32 32 32 33 33 34 34 35 35 35 35 35 35 35 36 36 36 37 37 37 37 37 38 38
25 26 27 28 28 28 28 29 30 30 31 31 32 33 33 34 34 34 34 35 35 35 36 36 36 36 36 36 36 36 36 36 36 37 37 36 36 36
27 27 28 28 29 29 29 30 31 32 32 33 34 34 35 35 35 35 35 35 36 36 35 35 36 36 36 36 36 36 36 36 36 36 35 35 34 34
27 28 29 29 30 30 30 31 32 33 34 34 35 35 36 36 36 36 36 36 36 35 35 35 34 35 35 35 35 34 34 35 34 34 33 32 32 31
29 29 30 31 31 31 32 33 34 34 34 34 34 35 35 35 36 36 36 35 35 35 35 35 35 34 34 33 33 33 32 32 32 32 31 31 31 30
30 31 31 32 32 33 34 34 34 35 35 35 35 35 35 35 36 35 35 35 35 35 34 34 34 33 32 31 31 31 31 30 30 29 29 29 29 29
31 32 32 33 34 34 34 34 35 35 35 35 36 36 36 36 35 35 34 34 33 33 33 32 32 31 31 30 29 29 28 28 28 28 28 27 27 27
32 33 34 34 34 34 34 35 35 35 36 36 36 36 36 35 34 34 33 33 32 31 31 30 29 29 28 28 27 27 26 25 25 25 25 25 25 25
33 34 34 35 34 34 35 35 36 36 36 36 35 35 34 34 33 32 31 30 30 29 29 28 27 27 26 26 26 25 24 24 24 24 24 24 25 25

GEFSNE_500_meanwind_186.txt.gz
Wind_Speed
14 15 16 18 18 18 19 19 20 20 21 22 23 23 23 23 24 25 25 25 24 25 25 26 27 27 27 27 28 29 29 30 31 31 32 33 34 34
14 14 15 17 17 18 19 19 19 20 21 21 22 23 22 23 24 24 24 25 25 25 25 26 26 27 28 30 31 30 31 31 32 33 34 35 35 36
14 14 15 16 17 17 18 19 19 19 20 21 21 21 21 22 23 24 24 24 25 25 25 25 26 27 29 29 31 31 32 33 33 34 35 36 36 37
12 13 14 15 15 16 17 18 18 18 19 20 20 21 22 23 23 23 23 24 25 25 25 26 27 28 30 31 32 33 33 34 35 36 36 37 37 38
11 12 12 13 14 15 16 16 17 18 19 20 20 21 22 22 22 22 24 25 26 27 28 29 30 30 31 32 32 34 35 36 36 37 38 38 39 40
11 12 13 14 15 16 17 17 18 19 19 20 20 21 22 23 23 24 25 26 27 28 29 30 30 31 31 32 33 34 35 37 38 38 39 40 40 41
13 13 14 15 16 17 17 18 19 20 20 21 21 22 23 23 24 25 26 26 28 29 30 31 32 32 33 34 35 36 37 38 39 39 39 39 39 40
13 14 14 15 16 16 17 18 19 19 20 21 22 22 23 25 26 26 26 27 29 30 31 32 33 33 34 36 37 38 38 38 39 39 39 39 39 39
13 14 15 16 16 17 17 17 18 18 19 20 22 23 24 26 27 28 28 28 29 30 31 32 33 34 35 36 37 37 38 38 38 38 39 39 40 40
14 15 16 16 16 16 17 18 19 20 21 22 23 24 25 26 27 27 28 29 30 31 33 33 34 35 36 36 37 37 37 37 38 39 39 40 40 40
15 15 16 17 17 17 19 19 20 21 22 23 24 25 26 26 27 27 28 30 31 32 33 33 33 34 35 36 37 37 38 38 38 38 39 39 40 40
16 16 17 17 18 19 20 21 23 24 25 25 26 26 27 27 28 28 29 30 31 32 32 32 33 34 35 35 36 36 36 36 37 37 37 37 37 38
17 18 19 19 20 21 22 23 25 26 26 27 27 27 27 28 28 29 30 31 32 32 32 33 33 34 34 35 36 36 37 36 37 37 37 37 38 38
19 20 20 21 22 23 24 26 27 27 27 28 28 28 29 29 30 31 32 32 33 33 34 35 35 35 35 36 36 36 37 37 37 37 37 38 38 38
21 22 22 23 24 26 27 27 28 28 28 29 29 30 31 32 33 33 33 34 34 35 35 35 36 36 36 37 37 36 37 37 36 37 37 37 37 38
23 24 24 25 26 27 28 28 28 29 30 30 31 32 33 33 34 34 35 35 35 36 36 36 36 36 36 36 36 36 36 36 36 36 36 36 36 36
24 25 25 26 27 28 28 29 30 30 31 32 32 33 33 34 34 34 35 35 35 35 35 35 35 35 35 35 35 35 35 35 35 36 35 34 34 34
25 26 27 27 28 29 30 31 31 32 32 32 33 33 34 34 34 34 35 35 34 34 34 34 34 34 34 34 34 33 33 33 33 33 33 33 33 32
27 28 28 29 30 30 31 31 32 32 32 33 34 34 34 34 34 34 34 34 34 33 33 33 32 32 32 32 32 32 31 31 30 30 30 30 30 30
28 28 29 30 31 31 31 32 32 32 33 34 34 34 34 34 33 33 33 33 32 32 32 32 31 31 31 31 30 29 29 29 28 28 28 27 27 27
29 29 29 30 31 32 32 32 33 33 34 34 33 33 33 33 33 32 32 32 32 31 31 30 30 30 30 29 28 27 27 27 26 26 25 25 25 25
29 30 30 31 32 32 33 33 33 33 33 33 32 32 32 32 32 32 32 31 31 30 30 30 29 29 28 27 26 26 26 25 25 24 24 23 23 22
30 31 32 33 33 32 32 32 33 33 33 32 32 32 32 32 32 31 31 30 30 29 29 29 28 28 27 26 25 25 24 24 23 23 22 22 22 21

GEFSNE_500_meanwind_192.txt.gz
Wind_Speed
15 16 16 17 18 19 19 19 20 20 21 22 23 23 23 23 23 24 25 25 25 26 26 27 29 29 30 30 30 29 30 30 32 32 32 33 33 33
14 15 16 17 18 19 19 19 19 20 21 22 23 22 22 23 23 23 24 24 24 25 26 26 27 28 28 30 31 30 31 31 31 32 33 34 34 34
13 14 15 17 17 18 19 19 19 20 20 21 22 23 23 24 24 24 23 24 25 26 27 28 28 28 28 29 30 30 31 31 32 34 34 35 36 36
14 14 14 15 16 17 18 18 19 19 20 20 21 22 23 23 24 24 25 25 26 26 27 28 28 29 30 31 32 32 33 33 34 34 35 36 37 38
14 15 15 16 17 17 18 18 18 19 20 21 21 21 22 23 24 25 26 26 27 28 29 29 30 30 31 32 33 34 34 35 35 35 36 37 37 38
15 15 16 16 17 17 17 18 19 20 21 21 22 23 24 24 25 26 26 27 28 29 30 30 30 30 31 32 34 35 36 37 37 37 38 39 39 40
15 15 16 16 17 17 18 19 20 20 21 22 23 23 24 25 25 26 26 27 29 30 30 31 32 32 32 34 35 36 36 36 37 38 39 39 39 40
15 16 16 17 18 18 19 20 20 21 21 22 23 24 25 25 26 27 28 28 29 31 32 33 33 34 34 35 35 35 36 37 38 39 39 40 41 41
17 17 17 18 19 19 19 20 21 22 22 23 24 25 26 27 28 29 30 30 31 32 32 33 33 34 34 35 35 36 37 38 39 40 41 41 42 43
17 18 19 19 19 19 20 21 21 22 24 25 26 27 28 28 29 30 31 32 32 32 33 34 34 35 36 36 37 37 38 39 39 40 41 41 41 42
18 19 20 20 20 20 21 22 23 24 26 27 27 28 28 29 30 31 31 32 32 33 34 34 35 35 36 37 37 37 38 38 39 39 39 39 39 40
19 20 21 21 22 22 23 24 25 26 27 28 28 29 29 30 31 31 32 32 33 34 35 35 35 35 35 36 36 37 37 38 38 38 38 38 38 38
21 22 23 23 24 24 25 26 27 28 28 28 29 29 30 31 31 32 33 34 34 35 36 36 36 36 36 36 36 37 37 37 38 38 38 38 38 38
23 23 24 24 25 26 27 28 28 29 29 30 30 31 31 31 32 33 34 34 35 35 36 36 36 36 36 36 36 37 37 38 38 38 38 38 38 38
24 24 25 26 27 28 28 28 29 30 30 31 31 31 32 32 33 33 34 35 35 35 35 35 35 35 36 36 36 37 37 37 38 39 38 38 38 38
26 26 27 27 28 28 29 29 29 30 30 31 32 32 32 33 34 34 35 35 35 36 35 34 34 34 34 34 35 35 35 36 36 36 36 37 37 37
27 28 28 28 29 29 30 30 30 30 31 31 32 32 33 34 34 34 34 34 34 34 33 33 33 33 33 33 33 33 34 34 35 35 34 34 34 34
28 28 28 29 29 29 30 30 30 31 31 32 32 33 33 34 34 33 33 33 33 33 33 33 33 33 33 33 33 33 33 33 32 32 31 30 29 29
29 29 29 29 30 30 30 31 31 32 32 33 33 33 33 33 33 33 33 33 32 33 32 32 32 32 32 32 32 32 31 31 30 29 29 28 27 26
29 29 30 30 30 31 31 31 32 33 33 33 34 34 33 33 32 32 32 33 33 33 32 32 31 31 31 31 31 30 29 29 28 28 27 27 26 25
29 29 30 30 31 31 32 32 32 32 32 33 33 32 32 32 32 32 32 33 33 32 32 31 31 31 30 30 30 29 28 28 27 26 25 25 24 23
29 30 30 30 30 31 31 32 32 32 32 33 32 31 31 31 31 32 32 33 32 32 32 32 31 30 30 29 29 29 28 27 26 26 25 24 23 22
29 29 29 30 31 31 31 31 31 32 32 32 31 31 31 31 32 32 33 33 32 32 32 31 30 30 29 29 28 27 27 26 25 24 24 23 22 22

GEFSNE_500_meanwind_198.txt.gz
Wind_Speed
12 13 13 15 16 16 17 17 18 19 20 21 21 21 21 22 22 21 22 23 24 25 26 26 27 27 27 27 28 28 29 29 30 31 31 31 32 31
13 13 14 15 16 16 17 18 19 19 19 21 21 22 21 21 22 23 24 24 25 25 25 25 26 27 27 27 28 29 30 30 31 32 32 32 33 34
13 14 14 15 16 17 17 18 19 19 19 20 21 21 21 22 22 23 23 24 25 25 26 26 27 27 28 28 29 30 30 31 31 32 32 33 33 34
13 14 14 15 16 17 17 18 19 20 20 20 20 20 21 21 22 24 24 24 25 25 27 27 28 29 29 30 31 31 31 32 32 33 34 34 35 35
13 14 14 15 16 17 18 18 18 19 19 20 20 21 21 22 23 24 24 25 26 27 28 28 29 30 30 31 31 31 32 32 33 34 34 35 36 36
14 14 15 16 16 16 17 18 18 18 19 20 20 21 22 23 24 25 25 25 26 26 27 28 29 30 31 32 32 32 33 34 34 34 35 35 36 37
15 15 16 16 17 17 18 18 18 19 19 20 21 22 23 24 25 25 26 26 27 28 28 30 30 31 32 32 33 34 34 35 35 36 36 36 37 38
16 16 17 18 18 18 18 19 20 20 20 22 23 24 24 25 26 26 27 27 28 29 30 31 31 32 33 33 33 34 35 36 36 37 38 38 39 39
17 17 18 18 18 19 20 21 22 22 22 23 23 24 25 25 26 27 28 29 29 30 30 31 32 33 33 33 34 35 36 37 37 38 38 39 39 39
18 18 19 19 19 20 21 22 22 23 23 24 25 25 26 26 27 28 29 29 30 30 31 32 32 33 34 34 35 36 36 37 37 38 38 38 38 39
19 19 20 21 21 21 22 23 24 24 25 25 26 27 27 28 28 29 29 30 30 30 31 31 32 33 33 34 35 36 37 37 37 37 37 37 38 39
20 21 21 22 22 22 23 24 24 25 26 27 27 28 28 29 29 29 29 30 30 30 31 32 32 33 34 34 35 35 36 36 36 36 37 38 38 38
22 22 23 23 24 24 24 25 25 26 27 28 28 28 29 29 29 29 29 29 30 31 31 32 33 33 34 34 34 34 34 35 35 36 36 36 36 37
23 23 24 24 25 25 26 27 27 27 28 28 28 28 29 29 28 28 29 29 30 31 32 32 32 32 33 33 33 33 33 34 34 35 35 36 36 36
24 25 25 26 26 27 27 27 28 28 28 28 29 29 29 29 29 29 30 30 31 31 31 31 32 32 32 32 33 33 33 33 33 33 34 34 34 34
26 26 26 26 27 28 27 27 27 27 27 28 29 29 29 29 29 30 30 30 30 30 31 31 31 31 31 31 31 32 32 32 32 33 33 33 33 33
27 27 27 27 27 27 27 27 27 27 28 28 29 29 29 29 29 30 30 30 30 30 30 30 30 30 30 30 30 30 31 31 31 31 31 31 32 31
28 28 27 27 27 27 27 27 27 28 28 29 29 29 29 30 30 30 30 29 30 30 30 30 30 30 30 29 30 30 30 30 30 30 30 30 30 29
27 27 27 27 27 27 27 27 28 28 28 29 29 29 30 30 30 29 29 29 29 29 30 30 30 30 30 30 29 29 29 29 29 29 29 29 28 28
26 26 26 26 26 26 27 28 28 28 28 29 29 29 29 29 29 29 29 29 29 30 30 29 29 29 29 29 29 28 28 28 28 28 28 28 27 26
26 26 26 26 26 27 28 29 29 29 29 29 29 29 29 29 28 28 29 29 29 29 29 29 29 28 28 28 28 28 28 28 28 28 27 27 26 25
26 27 27 27 27 28 28 28 29 29 29 29 29 29 28 28 28 28 29 29 29 29 29 29 28 28 28 28 28 28 28 28 27 27 26 26 25 24
27 27 27 27 28 28 29 29 29 29 29 28 28 28 28 28 29 29 29 29 29 29 29 28 28 28 27 27 27 27 27 27 27 26 26 25 24 24

GEFSNE_500_meanwind_204.txt.gz
Wind_Speed
12 12 12 13 13 14 14 14 15 16 18 19 19 20 20 20 20 21 22 21 22 23 24 23 23 24 24 25 25 26 26 26 26 27 28 28 29 30
13 13 13 13 14 14 15 16 17 17 18 19 20 20 20 19 20 20 20 21 22 22 22 23 23 24 24 25 26 27 28 28 29 29 30 30 30 31
14 14 14 14 14 14 15 16 16 17 18 19 20 20 19 20 20 21 21 22 22 21 22 23 24 24 25 26 27 27 28 29 29 30 31 31 31 31
14 14 14 14 14 15 16 16 17 17 18 19 19 19 19 20 21 22 22 23 22 22 23 24 25 25 26 27 27 28 28 28 29 29 29 30 31 31
15 15 15 15 15 16 16 17 17 18 18 18 18 19 20 21 22 22 23 24 23 24 24 25 25 26 26 27 28 29 29 30 30 31 32 32 32 33
15 16 16 16 16 17 18 18 18 18 19 19 19 20 21 22 23 24 24 24 24 25 25 26 26 27 28 28 29 30 31 32 33 33 34 34 35 35
17 17 17 17 17 18 18 19 19 19 20 20 20 22 22 23 24 24 25 25 25 26 26 26 27 28 29 30 31 31 32 33 34 34 35 36 36 37
18 18 18 18 19 19 20 20 20 20 21 21 21 22 23 24 25 25 26 26 26 27 27 28 29 30 30 31 32 32 33 33 34 35 35 36 36 37
19 19 19 19 20 20 20 20 21 21 22 23 23 23 24 25 26 27 27 27 27 27 28 28 29 30 31 31 32 33 33 34 35 36 36 36 36 36
19 20 20 20 20 21 21 22 22 23 23 24 24 25 25 26 27 27 27 27 28 27 28 28 29 30 31 32 33 34 34 35 35 35 35 35 35 35
21 21 21 21 21 22 22 23 23 24 24 24 25 25 26 26 27 27 27 27 27 27 28 29 30 31 31 32 33 33 34 34 34 34 34 35 35 35
22 22 22 22 23 23 24 24 24 24 25 25 25 26 26 26 27 26 26 26 27 28 29 30 31 31 32 32 33 33 33 33 34 34 34 34 34 34
22 23 23 23 24 24 25 25 25 25 25 26 26 26 26 26 26 26 26 27 28 28 29 30 30 31 31 31 31 31 31 31 31 31 31 32 32 33
24 24 24 24 25 25 25 25 25 25 26 26 26 26 25 26 26 27 27 28 28 29 30 30 30 30 30 30 30 29 29 30 29 30 30 30 30 31
25 25 25 25 26 25 25 25 26 26 26 26 26 26 26 27 27 28 28 29 29 30 30 30 30 31 30 30 30 30 30 29 29 29 30 30 30 30
26 26 26 26 25 25 26 26 26 26 26 25 25 26 26 27 27 28 29 29 29 30 30 30 30 31 31 30 30 29 29 30 29 29 30 30 30 30
27 27 27 27 26 26 26 26 26 26 25 25 26 27 27 28 28 29 30 30 29 29 30 30 30 30 30 30 29 29 28 28 29 29 29 29 29 29
28 28 28 28 27 26 26 26 25 25 25 26 27 28 28 28 29 30 30 30 30 30 29 29 29 29 29 28 28 28 28 28 28 28 28 28 28 28
28 28 28 28 27 26 26 25 25 25 26 27 28 28 29 29 30 30 30 30 30 30 29 29 29 29 29 28 28 28 28 28 28 28 28 28 28 28
28 28 28 27 27 26 26 26 26 26 27 28 29 29 29 29 29 29 30 30 30 30 30 29 29 29 28 28 28 28 28 28 28 28 27 27 27 27
27 27 27 27 27 27 26 27 27 28 28 29 29 28 29 29 30 30 29 30 30 30 30 29 29 29 28 28 28 27 28 28 28 27 27 27 27 27
27 27 28 28 28 28 27 28 28 29 29 29 29 29 29 29 30 30 30 30 30 30 30 30 30 29 29 28 28 28 27 27 27 27 27 28 28 27
28 28 29 29 28 28 28 28 28 29 29 29 29 29 29 30 30 30 30 31 31 31 31 31 30 30 30 29 29 28 27 27 27 27 27 28 28 28

GEFSNE_500_meanwind_210.txt.gz
Wind_Speed
11 11 11 12 12 13 13 13 14 14 15 16 17 17 18 20 20 21 22 22 22 22 23 24 24 24 24 25 26 26 27 27 28 29 30 31 31 31
11 11 11 12 12 13 13 13 13 14 15 16 17 18 19 20 20 20 20 21 22 22 23 24 24 24 24 25 26 26 27 27 29 30 30 31 32 33
12 12 11 12 12 12 13 13 14 15 16 17 18 19 19 20 20 20 21 21 22 22 23 23 24 25 26 26 27 27 28 28 29 30 31 31 32 33
13 12 12 12 12 12 13 13 14 15 17 18 19 19 19 20 20 21 21 22 23 24 24 25 25 26 26 27 27 28 28 29 30 31 32 33 33 34
13 13 13 13 13 13 13 14 15 16 17 18 18 19 19 20 21 21 22 23 24 24 24 25 26 26 27 28 28 29 29 29 31 32 34 34 35 35
14 13 13 14 14 14 14 15 16 16 17 18 19 19 21 21 22 22 23 23 24 25 26 27 26 26 28 29 29 29 30 31 32 33 34 34 34 35
14 14 14 15 15 16 16 16 17 17 18 18 19 20 21 22 22 23 23 24 25 26 27 27 27 27 28 28 29 30 31 32 33 33 34 34 35 35
14 14 15 15 16 17 17 17 18 18 19 20 20 21 21 22 22 23 24 25 26 26 26 26 26 27 27 28 29 30 31 32 33 33 34 35 35 36
15 15 16 16 17 17 18 18 19 19 20 21 21 22 22 23 23 24 25 26 26 26 26 26 26 27 27 28 29 30 31 32 33 33 34 35 35 36
17 17 18 18 19 19 19 20 20 21 21 22 22 23 23 23 24 24 25 25 25 25 25 26 26 26 27 28 29 30 31 31 32 32 33 33 34 34
19 19 20 20 20 21 21 21 21 22 22 22 23 23 23 23 24 24 24 24 25 25 25 26 26 26 27 27 28 29 29 30 30 30 31 31 32 31
20 20 21 21 21 22 22 22 22 22 23 23 24 24 24 23 23 23 24 25 25 26 26 26 26 27 27 28 28 29 29 29 29 29 30 30 29 29
22 22 22 23 23 23 23 23 23 24 24 24 24 24 24 23 23 24 25 26 26 27 27 27 27 27 28 28 28 28 28 28 28 28 29 29 29 28
23 24 24 24 24 24 24 24 24 24 24 25 24 24 24 23 24 24 25 27 27 27 27 27 27 27 28 28 28 28 28 28 28 28 28 28 28 28
24 25 25 24 24 24 25 25 25 25 25 25 25 25 25 25 25 25 26 26 27 27 27 28 28 28 28 28 28 28 28 28 27 27 27 27 27 28
25 25 25 25 25 24 25 25 25 25 25 26 26 25 25 26 26 26 26 27 27 28 28 28 28 28 28 28 28 28 28 27 27 27 27 27 28 27
25 25 25 25 25 25 25 25 25 25 25 25 25 25 25 25 26 26 26 27 28 28 28 28 28 28 28 28 27 27 27 27 27 27 27 27 26 26
25 25 25 25 25 26 26 26 26 26 26 25 25 25 25 26 26 27 27 27 27 28 28 28 28 28 28 27 27 27 27 28 27 27 27 26 26 26
25 25 25 25 26 26 26 25 25 26 26 26 25 26 26 26 27 27 27 28 28 28 28 28 28 28 28 28 28 27 27 27 27 27 27 26 26 27
25 25 25 25 25 26 26 26 26 26 26 26 26 26 26 27 27 27 28 28 28 28 28 28 28 28 28 28 28 28 28 28 27 26 27 27 27 28
25 25 25 25 26 26 26 26 27 27 27 27 27 27 27 28 28 28 28 28 28 28 29 29 29 28 28 28 28 28 29 29 28 28 28 28 28 28
25 25 26 26 27 27 27 27 27 28 27 27 28 28 29 29 29 29 28 29 29 28 29 29 29 28 28 28 28 28 28 29 29 29 29 29 29 28
26 26 27 27 27 27 27 28 28 29 28 28 29 29 29 29 29 29 29 29 29 29 29 29 29 29 29 29 29 29 29 29 29 29 29 29 30 29

GEFSNE_500_meanwind_216.txt.gz
Wind_Speed
11 11 11 12 13 13 14 14 15 15 16 17 17 18 18 19 20 21 21 21 22 23 23 24 25 26 26 26 26 26 26 27 28 29 29 29 29 30
12 12 12 12 13 13 13 14 15 16 16 17 18 19 20 20 21 22 22 23 23 24 24 24 24 24 25 26 27 27 28 29 30 30 29 29 30 30
13 13 13 13 13 13 14 15 16 16 17 18 19 19 20 20 21 22 22 23 23 24 25 25 24 25 26 26 27 28 29 29 30 29 29 30 31 32
14 13 13 13 13 13 15 15 16 17 17 18 19 20 20 20 21 22 23 24 24 24 24 24 24 25 26 27 27 28 29 29 29 30 31 31 32 32
14 14 14 14 14 14 15 16 17 17 18 18 19 20 21 22 22 24 24 24 24 24 24 24 24 25 26 27 27 27 28 29 30 30 31 31 32 33
15 15 15 15 15 16 17 17 18 18 18 19 20 20 22 22 23 24 24 24 24 24 24 25 26 26 27 27 27 28 28 29 30 30 31 31 32 32
16 16 16 16 17 18 19 19 19 19 19 20 20 21 22 22 23 24 24 24 24 25 25 26 26 27 27 27 27 28 28 29 29 30 30 31 32 32
17 17 17 18 19 19 20 20 20 20 20 21 21 21 22 22 23 23 24 24 25 26 26 26 27 27 27 28 28 28 28 28 29 29 30 31 32 33
18 18 19 19 19 20 19 19 20 20 21 21 21 22 22 23 23 23 24 24 25 25 26 26 27 27 27 28 28 28 28 28 28 29 30 31 31 32
20 20 20 20 20 20 21 21 21 21 21 22 22 22 22 23 23 24 24 25 25 25 26 26 26 27 27 27 27 27 27 28 29 29 29 29 30 30
21 21 21 21 22 22 22 22 22 22 22 22 23 23 23 24 24 25 25 26 26 26 26 26 27 27 27 27 27 27 28 28 28 28 28 29 29 29
23 22 22 22 22 22 22 22 23 23 23 23 24 24 25 25 26 26 27 27 27 26 27 27 27 27 28 28 28 28 28 28 28 29 28 28 29 29
23 23 23 23 23 23 23 23 24 24 24 25 25 26 26 26 26 27 27 27 26 26 27 27 27 27 28 28 28 28 28 28 28 29 29 29 29 29
24 24 24 23 23 24 24 24 24 25 26 26 26 27 27 27 27 28 27 27 26 26 26 27 28 28 28 28 28 28 28 28 28 28 29 29 29 28
24 24 24 24 24 25 25 25 26 26 27 27 27 27 27 27 28 27 27 26 26 27 27 27 27 28 28 28 28 28 28 28 28 28 28 28 28 28
25 25 25 25 26 26 26 26 27 27 28 27 27 26 26 26 27 27 26 26 27 27 27 28 28 28 28 28 28 28 28 28 28 28 28 28 27 27
26 26 26 26 26 26 27 27 27 27 28 28 27 26 26 26 27 27 27 27 27 27 27 28 28 28 29 28 29 28 28 28 27 27 27 27 27 27
26 26 26 26 27 27 28 28 28 28 28 27 27 27 27 27 27 27 27 28 28 28 28 28 28 28 29 29 29 29 28 28 27 27 26 26 26 27
27 27 27 28 28 29 28 28 28 28 28 27 28 28 27 27 27 28 28 28 28 29 29 29 29 29 29 30 30 29 28 27 27 27 27 27 26 27
28 28 29 29 29 29 29 29 29 28 28 28 28 28 28 28 28 28 28 29 29 29 29 30 30 30 30 30 30 29 29 28 28 28 28 27 27 27
29 29 30 30 30 29 29 29 28 28 28 28 28 28 28 28 28 28 29 29 29 29 29 30 30 31 31 30 29 29 29 29 29 29 29 28 28 28
30 30 30 30 30 29 28 28 27 27 27 28 28 28 28 28 28 28 29 29 29 29 29 30 30 30 30 29 29 29 29 29 30 30 30 29 29 29
30 30 30 29 29 29 28 28 28 28 28 28 28 28 28 29 29 29 29 29 29 29 30 30 29 29 30 30 30 30 30 30 30 30 30 30 30 30